Airport Information

KOLM - Olympia Regional Airport

KOLM 191754Z AUTO 26011KT 10SM FEW041 SCT048 18/05 A3020 RMK AO2 SLP227 T01780050 10183 20072 58004


  • General Information

  • Coordinates: N 46°58'9"/ W 122°54'9"
  • Location: N/A
  • Surveyed Elevation: 209 MSL

Operations

Flow Name Active Runways Conditions

Green background denotes normal operations.


Common Frequencies

Callsign Frequency Position Name

More at the Document Center


Charts